{"data":{"norad_id":56694,"intl_designator":"2023-067G","name":"STARLINK-30126","alt_names":[],"object_type":"PAYLOAD","status":"ACTIVE","operator":null,"country":"US","launch_date":"2023-05-19","launch_site_code":"AFETR","launch_vehicle":null,"mission":null,"orbit_class":"UNKNOWN","rcs_meters":null,"size_class":null,"mass_kg":null,"dimensions":null,"purposes":["comms"],"wikipedia_slug":null,"has_3d_model":false,"image_url":null,"decayed_at":null,"tle_current":{"epoch":"2026-09-20T10:05:38.526720Z","epoch_age_seconds":121819,"freshness":"FRESH","line1":"1 56694U 23067G   26263.42058480  .00001958  00000+0  80696-4 0  9993","line2":"2 56694  43.0028 254.5600 0001164 267.6260  92.4458 15.27568804185442","mean_motion":15.27568804,"eccentricity":0.0001164,"inclination_deg":43.0028,"raan_deg":254.56,"arg_perigee_deg":267.626,"mean_anomaly_deg":92.4458,"bstar":8.0696e-5,"rev_number":18544,"period_min":94.267439622314,"perigee_km":482.28397513226,"apogee_km":483.88126706005,"semimajor_km":6861.2196210962,"source":"CELESTRAK","updated_at":"2026-09-21T09:00:33.481838Z"}}}